Orbital Elements at Epoch 2459200.5 (2020-Dec-17.0) TDB
Reference: JPL 20 (heliocentric ecliptic J2000)
Element | Value | Uncertainty (1-sigma) | Units |
e | .2286337292220758 | 5.1869e-08 | |
a | 2.575472963965765 | 1.7378e-08 | au |
q | 1.98663297570364 | 1.2912e-07 | au |
i | 6.686153508293991 | 6.0231e-06 | deg |
node | 67.50629299493686 | 5.036e-05 | deg |
peri | 354.5022832909733 | 5.2416e-05 | deg |
M | 289.4021086973414 | 1.7276e-05 | deg |
tp | 2459496.555509925296 (2021-Oct-09.05550993) | 7.3985e-05 | TDB |
period | 1509.676586743785 4.13 | 1.5279e-05 4.183e-08 | d yr |
n | .2384616699769335 | 2.4135e-09 | deg/d |
Q | 3.164312952227891 | 2.1351e-08 | au |
|
| | Orbit Determination Parameters
Additional Information
|